Regional Weather Roundup
Issued by NWS

Home | Current Version | Previous Version | Text Only | Print | Product List | Glossary On
Versions: 1 2 3 4 5 6 7 8 9 10 11 12 13 14 15 16 17 18 19 20 21 22 23 24 25 26 27 28
000
ASUS45 KSLC 281210
RWRUT

UTAH REGIONAL WEATHER ROUNDUP
NATIONAL WEATHER SERVICE SALT LAKE CITY UT
600 AM MDT WED JUN 28 2017

UTZ001>011-023>025-281300-

NORTHERN UTAH

CITY           SKY/WX    TMP DP  RH WIND       PRES   REMARKS
BRIGHAM CITY   CLEAR     59  41  51 N15G21    29.89R
HILL AFB       CLEAR     60  37  42 E17       29.89S
LOGAN          CLEAR     52  45  77 N9        29.94R
OGDEN          CLEAR     61  39  44 S12       29.87R
SALT LAKE CITY CLEAR     67  39  35 SE7       29.87R
TOOELE VALLEY  CLEAR     59  36  41 S7        29.89R
WENDOVER         N/A     62  28  27 W5        29.87R
HEBER CITY     CLEAR     43  34  70 CALM      29.99R
WEST JORDAN    CLEAR     62  43  50 SW3       29.90R

$$

UTZ011>015-024>027-281300-

CENTRAL/NORTHEAST UTAH

CITY           SKY/WX    TMP DP  RH WIND       PRES   REMARKS
PROVO AIRPORT  CLEAR     55  44  66 CALM      29.91R
MOAB/CANYONLAN CLEAR     69  27  20 CALM      29.84R
DELTA          CLEAR     59  32  36 SW6       29.91R
PRICE          PTCLDY    59  27  29 NW3       29.96R
ROOSEVELT      CLEAR     48  34  57 W6        29.96S
VERNAL         CLEAR     56  29  35 W7        29.95R

$$

UTZ013>016-019>022-027-281300-

SOUTHERN UTAH

CITY           SKY/WX    TMP DP  RH WIND       PRES   REMARKS
BRYCE CANYON   CLEAR     40  22  48 CALM      30.13S
CEDAR CITY     CLEAR     59  22  24 SE5       29.96R
MILFORD        CLEAR     52  22  30 S7        29.91R
ST GEORGE      SUNNY     72  26  18 N6        29.79R
HANKSVILLE     CLEAR     55  18  22 NE3       29.88R
BLANDING       PTCLDY    58  17  20 NE9       30.05R

$$

REGIONAL REPORTS     COLORADO/ARIZONA

CITY           SKY/WX    TMP DP  RH WIND       PRES   REMARKS
CRAIG, CO      CLOUDY    42  37  82 CALM      30.03R
GRAND JUNCTION CLEAR     66  31  27 SE9       29.88R
RIFLE, CO      CLEAR     59  28  30 CALM      29.96R
MONTROSE, CO   CLOUDY    58  22  24 SE7       29.99R
CORTEZ, CO     CLOUDY    44  28  53 MISG      30.02R
COLORADO CITY    N/A     52  23  32 SE3       29.98R
PAGE, AZ       CLEAR     73  19  13 SW5       29.88R
GRAND CANYON   PTCLDY    38  15  39 E3        30.12S
KINGMAN, AZ    CLEAR     73  20  13 SE12      29.86R
FLAGSTAFF, AZ  PTCLDY    39  13  34 SW3       30.17R

$$

REGIONAL REPORTS    NEVADA/IDAHO/WYOMING

CITY           SKY/WX    TMP DP  RH WIND       PRES   REMARKS
LAS VEGAS, NV  CLEAR     83  22  10 SW9       29.71R
ELY, NY        PTCLDY    43  15  32 S12       30.04R
ELKO, NV       CLEAR     51  31  46 CALM      29.96R
POCATELLO, ID  PTCLDY    61  47  59 E12       29.89F
BURLEY, ID     CLEAR     61  46  57 S14       29.87F
FORT BRIDGER,    N/A     53  28  38 S8        30.07S
EVANSTON, WY   CLOUDY    52  29  41 CALM      30.06R
ROCK SPRINGS,  CLOUDY    50  32  50 SE3       30.03R
KEMMERER, WY     N/A     41  34  75 N10       30.06S

$$




USA.gov is the U.S. government's official web portal to all federal, state and local government web resources and services.